TimeCST,TemperatureF,Dew PointF,Humidity,Sea Level PressureIn,VisibilityMPH,Wind Direction,Wind SpeedMPH,Gust SpeedMPH,PrecipitationIn,Events,Conditions,WindDirDegrees,DateUTC
12:15 AM,23.2,15.4,72,30.07,10.0,NW,15.0,26.5,N/A,,Overcast,320,2013-02-19 06:15:00
12:35 AM,22.5,14.5,72,30.08,10.0,NW,17.3,31.1,N/A,,Scattered Clouds,310,2013-02-19 06:35:00
12:55 AM,21.2,12.9,70,30.09,10.0,NW,13.8,26.5,N/A,,Clear,320,2013-02-19 06:55:00
1:15 AM,20.1,11.7,70,30.10,10.0,NW,15.0,24.2,N/A,,Clear,320,2013-02-19 07:15:00
1:35 AM,18.9,9.9,68,30.12,10.0,NW,21.9,33.4,N/A,,Clear,310,2013-02-19 07:35:00
1:55 AM,17.8,9.5,70,30.12,10.0,NW,19.6,27.6,N/A,,Clear,310,2013-02-19 07:55:00
2:15 AM,17.2,8.6,69,30.13,10.0,NW,16.1,27.6,N/A,,Clear,320,2013-02-19 08:15:00
2:35 AM,16.9,8.4,69,30.13,10.0,NW,16.1,23.0,N/A,,Clear,320,2013-02-19 08:35:00
2:55 AM,16.2,7.3,68,30.14,10.0,NW,16.1,25.3,N/A,,Clear,310,2013-02-19 08:55:00
3:15 AM,15.4,7.3,70,30.15,10.0,NW,13.8,29.9,N/A,,Clear,320,2013-02-19 09:15:00
3:35 AM,14.7,7.7,74,30.15,10.0,NNW,11.5,18.4,N/A,,Clear,330,2013-02-19 09:35:00
3:55 AM,14.0,6.8,73,30.16,10.0,NW,16.1,25.3,N/A,,Clear,320,2013-02-19 09:55:00
4:15 AM,13.3,6.4,74,30.16,10.0,NW,11.5,20.7,N/A,,Clear,320,2013-02-19 10:15:00
4:35 AM,12.9,6.1,74,30.17,10.0,NW,13.8,19.6,N/A,,Scattered Clouds,320,2013-02-19 10:35:00
4:55 AM,12.2,5.4,74,30.18,10.0,NW,15.0,23.0,N/A,,Clear,320,2013-02-19 10:55:00
5:15 AM,12.0,4.5,72,30.19,10.0,NW,12.7,20.7,N/A,,Clear,320,2013-02-19 11:15:00
6:15 AM,10.9,3.4,72,30.21,10.0,NW,16.1,24.2,N/A,,Clear,320,2013-02-19 12:15:00
6:35 AM,10.9,3.6,72,30.22,10.0,NW,13.8,23.0,N/A,,Clear,320,2013-02-19 12:35:00
6:55 AM,10.8,3.4,72,30.22,10.0,NW,13.8,25.3,N/A,,Clear,310,2013-02-19 12:55:00
7:15 AM,10.4,3.2,73,30.23,10.0,NW,12.7,18.4,N/A,,Clear,310,2013-02-19 13:15:00
7:35 AM,10.2,2.7,72,30.26,10.0,NW,20.7,25.3,N/A,,Clear,310,2013-02-19 13:35:00
7:55 AM,10.4,3.0,72,30.28,10.0,NW,13.8,19.6,N/A,,Clear,320,2013-02-19 13:55:00
8:15 AM,10.8,2.8,70,30.28,10.0,NW,19.6,29.9,N/A,,Scattered Clouds,310,2013-02-19 14:15:00
8:35 AM,10.9,2.3,68,30.30,10.0,NW,17.3,25.3,N/A,,Scattered Clouds,320,2013-02-19 14:35:00
8:55 AM,11.3,2.1,67,30.31,10.0,NNW,13.8,27.6,N/A,,Clear,330,2013-02-19 14:55:00
9:15 AM,12.2,2.7,66,30.31,10.0,NW,12.7,18.4,N/A,,Scattered Clouds,320,2013-02-19 15:15:00
9:35 AM,12.6,2.5,64,30.32,10.0,NW,17.3,23.0,N/A,,Scattered Clouds,320,2013-02-19 15:35:00
9:55 AM,13.1,2.3,62,30.32,10.0,NW,18.4,25.3,N/A,,Scattered Clouds,320,2013-02-19 15:55:00
10:15 AM,14.4,3.2,61,30.32,10.0,NW,13.8,23.0,N/A,,Clear,320,2013-02-19 16:15:00
10:35 AM,14.9,3.0,59,30.32,10.0,NW,15.0,23.0,N/A,,Clear,320,2013-02-19 16:35:00
10:55 AM,15.8,3.2,58,30.33,10.0,NW,12.7,24.2,N/A,,Clear,320,2013-02-19 16:55:00
11:15 AM,17.2,3.7,56,30.33,10.0,NNW,12.7,19.6,N/A,,Clear,340,2013-02-19 17:15:00
11:35 AM,18.5,4.1,54,30.33,10.0,NNW,11.5,18.4,N/A,,Clear,340,2013-02-19 17:35:00
11:55 AM,19.2,4.1,52,30.33,10.0,NW,15.0,24.2,N/A,,Clear,320,2013-02-19 17:55:00
12:15 PM,20.5,4.1,49,30.33,10.0,NW,15.0,20.7,N/A,,Clear,310,2013-02-19 18:15:00
12:35 PM,21.2,4.1,48,30.32,10.0,NW,13.8,24.2,N/A,,Clear,320,2013-02-19 18:35:00
12:55 PM,22.6,4.1,45,30.32,10.0,WNW,15.0,20.7,N/A,,Clear,300,2013-02-19 18:55:00
1:15 PM,23.0,3.2,43,30.32,10.0,WNW,13.8,24.2,N/A,,Clear,300,2013-02-19 19:15:00
1:35 PM,22.8,2.7,42,30.31,10.0,NW,12.7,21.9,N/A,,Clear,320,2013-02-19 19:35:00
1:55 PM,24.4,1.4,37,30.30,10.0,NW,18.4,24.2,N/A,,Clear,320,2013-02-19 19:55:00
2:15 PM,24.6,1.2,36,30.30,10.0,NW,15.0,21.9,N/A,,Clear,310,2013-02-19 20:15:00
2:35 PM,25.5,1.9,36,30.30,10.0,NW,15.0,23.0,N/A,,Clear,320,2013-02-19 20:35:00
2:55 PM,25.7,1.9,36,30.30,10.0,NW,12.7,21.9,N/A,,Clear,310,2013-02-19 20:55:00
3:15 PM,25.3,0.3,34,30.30,10.0,NW,12.7,19.6,N/A,,Clear,320,2013-02-19 21:15:00
3:35 PM,25.9,1.0,34,30.30,10.0,NNW,13.8,19.6,N/A,,Clear,330,2013-02-19 21:35:00
3:55 PM,25.9,1.8,35,30.30,10.0,WNW,16.1,-,N/A,,Clear,300,2013-02-19 21:55:00
4:15 PM,25.7,-0.0,33,30.30,10.0,NNW,10.4,-,N/A,,Clear,330,2013-02-19 22:15:00
4:35 PM,25.9,0.7,34,30.30,10.0,NNW,10.4,17.3,N/A,,Clear,330,2013-02-19 22:35:00
4:55 PM,25.3,0.3,34,30.30,10.0,NNW,11.5,-,N/A,,Clear,340,2013-02-19 22:55:00
5:15 PM,24.8,0.1,34,30.30,10.0,NW,10.4,16.1,N/A,,Clear,320,2013-02-19 23:15:00
6:35 PM,21.9,-0.2,38,30.30,10.0,NNW,8.1,-,N/A,,Clear,340,2013-02-20 00:35:00
6:55 PM,21.2,0.3,40,30.32,10.0,NNW,8.1,-,N/A,,Clear,340,2013-02-20 00:55:00
7:15 PM,20.3,0.7,43,30.31,10.0,NNW,5.8,-,N/A,,Clear,340,2013-02-20 01:15:00
7:35 PM,19.8,2.3,47,30.32,10.0,NW,5.8,-,N/A,,Clear,320,2013-02-20 01:35:00
7:55 PM,19.2,3.0,49,30.32,10.0,NNW,4.6,-,N/A,,Clear,340,2013-02-20 01:55:00
8:15 PM,18.5,2.8,51,30.33,10.0,NW,5.8,-,N/A,,Clear,320,2013-02-20 02:15:00
8:35 PM,17.8,3.2,53,30.32,10.0,NNW,6.9,-,N/A,,Clear,340,2013-02-20 02:35:00
8:55 PM,17.1,3.0,54,30.32,10.0,North,6.9,-,N/A,,Clear,350,2013-02-20 02:55:00
9:15 PM,16.7,3.2,55,30.33,10.0,North,3.5,-,N/A,,Clear,350,2013-02-20 03:15:00
9:55 PM,15.1,2.7,58,30.35,10.0,North,5.8,-,N/A,,Clear,350,2013-02-20 03:55:00
10:15 PM,14.7,2.5,58,30.37,10.0,NW,4.6,-,N/A,,Clear,320,2013-02-20 04:15:00
10:35 PM,14.5,2.7,59,30.37,10.0,NNW,3.5,-,N/A,,Clear,330,2013-02-20 04:35:00
10:55 PM,13.8,2.3,60,30.35,10.0,North,4.6,-,N/A,,Clear,10,2013-02-20 04:55:00
11:15 PM,13.1,2.3,62,30.38,10.0,NW,4.6,-,N/A,,Clear,320,2013-02-20 05:15:00
11:35 PM,13.1,2.7,63,30.37,10.0,North,4.6,-,N/A,,Clear,350,2013-02-20 05:35:00
11:55 PM,12.2,2.3,65,30.38,10.0,NW,3.5,-,N/A,,Clear,320,2013-02-20 05:55:00